Tiempo cada hora Cegrane

Hoy, 19 Abril, Lunes

Tiempo Temperatura Precipitaciones Viento Presión Humedad
00:00 +5°C° 0 mm 0 mps 689 mmHg 89%
01:00 +5°C° 0 mm 0 mps 689 mmHg 90%
02:00 +5°C° 0.1 mm 0 mps 689 mmHg 91%
03:00 +5°C° 0.1 mm 0 mps 688 mmHg 92%
04:00 +5°C° 0.1 mm 0 mps 688 mmHg 93%
05:00 +6°C° 0.1 mm 0 mps 688 mmHg 92%
06:00 +7°C° 0.1 mm 1 mps 688 mmHg 91%
07:00 +7°C° 0 mm 1 mps 688 mmHg 90%
08:00 +8°C° 0.4 mm 1 mps 688 mmHg 87%
09:00 +8°C° 0.4 mm 1 mps 688 mmHg 84%
10:00 +9°C° 0.4 mm 1 mps 687 mmHg 81%
11:00 +9°C° 0.7 mm 1 mps 687 mmHg 81%
12:00 +9°C° 0.7 mm 1 mps 687 mmHg 80%
13:00 +8°C° 0 mm 2 mps 687 mmHg 82%
14:00 +7°C° 0.9 mm 2 mps 687 mmHg 83%
15:00 +7°C° 0.9 mm 2 mps 687 mmHg 84%
16:00 +7°C° 0.9 mm 2 mps 687 mmHg 85%
17:00 +6°C° 0.3 mm 2 mps 687 mmHg 87%
18:00 +6°C° 0.3 mm 1 mps 687 mmHg 90%
19:00 +6°C° 0.3 mm 1 mps 688 mmHg 93%
20:00 +5°C° 0 mm 1 mps 688 mmHg 93%
21:00 +5°C° 0 mm 1 mps 688 mmHg 94%
22:00 +5°C° 0 mm 1 mps 688 mmHg 95%
23:00 +5°C° 0.1 mm 1 mps 688 mmHg 94%

Mañana, 20 Abril, Martes

Tiempo Temperatura Precipitaciones Viento Presión Humedad
00:00 +5°C° 0.1 mm 1 mps 688 mmHg 94%
01:00 +5°C° 0.1 mm 1 mps 688 mmHg 94%
02:00 +5°C° 0.1 mm 1 mps 688 mmHg 94%
03:00 +5°C° 0.1 mm 1 mps 688 mmHg 93%
04:00 +5°C° 0.1 mm 1 mps 689 mmHg 92%
05:00 +5°C° 0.1 mm 1 mps 689 mmHg 89%
06:00 +5°C° 0.1 mm 1 mps 689 mmHg 86%
07:00 +6°C° 0.1 mm 1 mps 690 mmHg 83%
08:00 +7°C° 0.1 mm 1 mps 690 mmHg 80%
09:00 +8°C° 0.1 mm 1 mps 690 mmHg 77%
10:00 +8°C° 0.1 mm 1 mps 690 mmHg 74%
11:00 +9°C° 0.3 mm 1 mps 690 mmHg 70%
12:00 +10°C° 0.3 mm 1 mps 690 mmHg 67%
13:00 +10°C° 0.3 mm 2 mps 690 mmHg 64%
14:00 +10°C° 0.5 mm 2 mps 690 mmHg 62%
15:00 +10°C° 0.5 mm 2 mps 690 mmHg 61%
16:00 +10°C° 0.5 mm 2 mps 689 mmHg 60%
17:00 +8°C° 0.2 mm 2 mps 690 mmHg 66%
18:00 +7°C° 0.2 mm 2 mps 690 mmHg 72%
19:00 +5°C° 0.2 mm 2 mps 690 mmHg 78%
20:00 +5°C° 0 mm 2 mps 691 mmHg 80%
21:00 +4°C° 0 mm 2 mps 691 mmHg 82%
22:00 +4°C° 0 mm 2 mps 692 mmHg 84%
23:00 +3°C° 0 mm 2 mps 692 mmHg 84%

Pasado mañana, 21 Abril, Miércoles

Tiempo Temperatura Precipitaciones Viento Presión Humedad
00:00 +3°C° 0 mm 2 mps 692 mmHg 85%
01:00 +3°C° 0 mm 2 mps 692 mmHg 85%
02:00 +3°C° 0 mm 2 mps 692 mmHg 86%
03:00 +2°C° 0 mm 2 mps 692 mmHg 86%
04:00 +2°C° 0 mm 2 mps 692 mmHg 87%
05:00 +5°C° 0 mm 1 mps 692 mmHg 82%
06:00 +6°C° 0 mm 1 mps 692 mmHg 77%
07:00 +7°C° 0 mm 1 mps 693 mmHg 72%
08:00 +9°C° 0 mm 1 mps 693 mmHg 67%
09:00 +10°C° 0 mm 1 mps 693 mmHg 62%
10:00 +11°C° 0 mm 1 mps 693 mmHg 57%
11:00 +12°C° 0.2 mm 1 mps 693 mmHg 56%
12:00 +13°C° 0.2 mm 1 mps 693 mmHg 54%
13:00 +13°C° 0.2 mm 1 mps 693 mmHg 53%
14:00 +13°C° 0.2 mm 1 mps 693 mmHg 53%
15:00 +13°C° 0.2 mm 1 mps 692 mmHg 53%
16:00 +13°C° 0.2 mm 1 mps 692 mmHg 53%
17:00 +11°C° 0 mm 1 mps 693 mmHg 60%
18:00 +10°C° 0 mm 1 mps 693 mmHg 66%
19:00 +8°C° 0 mm 1 mps 693 mmHg 73%
20:00 +7°C° 0 mm 1 mps 693 mmHg 75%
21:00 +6°C° 0 mm 2 mps 694 mmHg 77%
22:00 +5°C° 0 mm 2 mps 694 mmHg 80%
23:00 +5°C° 0 mm 2 mps 694 mmHg 80%

22 Abril, Jueves

Tiempo Temperatura Precipitaciones Viento Presión Humedad
00:00 +5°C° 0 mm 2 mps 694 mmHg 80%
01:00 +4°C° 0 mm 2 mps 694 mmHg 81%
02:00 +4°C° 0 mm 2 mps 694 mmHg 78%
03:00 +5°C° 0 mm 1 mps 694 mmHg 76%
04:00 +5°C° 0 mm 1 mps 694 mmHg 74%
05:00 +6°C° 0 mm 1 mps 694 mmHg 68%
06:00 +8°C° 0 mm 1 mps 694 mmHg 63%
07:00 +9°C° 0 mm 1 mps 694 mmHg 57%
08:00 +11°C° 0 mm 1 mps 694 mmHg 52%
09:00 +12°C° 0 mm 1 mps 694 mmHg 47%
10:00 +14°C° 0 mm 2 mps 694 mmHg 42%
11:00 +14°C° 0 mm 2 mps 694 mmHg 40%
12:00 +15°C° 0 mm 2 mps 694 mmHg 39%
13:00 +16°C° 0 mm 2 mps 694 mmHg 37%
14:00 +15°C° 0 mm 2 mps 694 mmHg 39%
15:00 +15°C° 0 mm 2 mps 693 mmHg 41%
16:00 +15°C° 0 mm 2 mps 693 mmHg 43%
17:00 +13°C° 0 mm 2 mps 693 mmHg 50%
18:00 +12°C° 0 mm 2 mps 693 mmHg 57%
19:00 +10°C° 0 mm 1 mps 693 mmHg 64%
20:00 +10°C° 0 mm 1 mps 693 mmHg 64%
21:00 +10°C° 0 mm 1 mps 693 mmHg 64%
22:00 +9°C° 0 mm 1 mps 693 mmHg 64%
23:00 +9°C° 0.1 mm 1 mps 692 mmHg 70%

23 Abril, Viernes

Tiempo Temperatura Precipitaciones Viento Presión Humedad
00:00 +9°C° 0.1 mm 1 mps 692 mmHg 76%
01:00 +9°C° 0.1 mm 1 mps 692 mmHg 81%
02:00 +9°C° 0.7 mm 1 mps 692 mmHg 85%
03:00 +7°C° 0.7 mm 0 mps 692 mmHg 89%
04:00 +7°C° 0.7 mm 0 mps 692 mmHg 94%
05:00 +8°C° 0.6 mm 1 mps 692 mmHg 94%
06:00 +8°C° 0.6 mm 1 mps 692 mmHg 94%
07:00 +8°C° 0.6 mm 1 mps 692 mmHg 94%
08:00 +8°C° 0.6 mm 1 mps 692 mmHg 93%
09:00 +9°C° 0.6 mm 1 mps 692 mmHg 93%
10:00 +9°C° 0.6 mm 1 mps 692 mmHg 92%
11:00 +9°C° 0.5 mm 1 mps 692 mmHg 92%
12:00 +9°C° 0.5 mm 1 mps 692 mmHg 92%
13:00 +9°C° 0.5 mm 1 mps 692 mmHg 92%
14:00 +9°C° 0.9 mm 1 mps 692 mmHg 93%
15:00 +9°C° 0.9 mm 1 mps 692 mmHg 93%
16:00 +8°C° 0.9 mm 0 mps 691 mmHg 93%
17:00 +8°C° 2.2 mm 1 mps 692 mmHg 94%
18:00 +8°C° 2.2 mm 1 mps 692 mmHg 95%
19:00 +7°C° 2.2 mm 1 mps 692 mmHg 96%
20:00 +7°C° 1.1 mm 1 mps 692 mmHg 97%
21:00 +6°C° 1.1 mm 2 mps 692 mmHg 97%
22:00 +5°C° 1.1 mm 2 mps 692 mmHg 97%
23:00 +5°C° 0.8 mm 2 mps 692 mmHg 98%

24 Abril, Sábado

Tiempo Temperatura Precipitaciones Viento Presión Humedad
00:00 +4°C° 0.8 mm 2 mps 692 mmHg 98%
01:00 +4°C° 0.8 mm 2 mps 692 mmHg 98%
02:00 +4°C° 0.7 mm 2 mps 692 mmHg 98%
03:00 +4°C° 0.7 mm 2 mps 692 mmHg 98%
04:00 +3°C° 0.7 mm 2 mps 693 mmHg 98%
05:00 +4°C° 0.3 mm 2 mps 693 mmHg 96%
06:00 +4°C° 0.3 mm 2 mps 693 mmHg 93%
07:00 +4°C° 0.3 mm 2 mps 693 mmHg 91%
08:00 +5°C° 0.1 mm 2 mps 693 mmHg 86%
09:00 +6°C° 0.1 mm 2 mps 693 mmHg 82%
10:00 +7°C° 0.1 mm 3 mps 693 mmHg 77%
11:00 +7°C° 0 mm 3 mps 693 mmHg 76%
12:00 +8°C° 0 mm 2 mps 693 mmHg 75%
13:00 +8°C° 0 mm 2 mps 693 mmHg 74%
14:00 +8°C° 0 mm 2 mps 693 mmHg 75%
15:00 +8°C° 0 mm 2 mps 693 mmHg 76%
16:00 +8°C° 0 mm 2 mps 693 mmHg 77%
17:00 +7°C° 0 mm 2 mps 693 mmHg 81%
18:00 +8°C° 0 mm 1 mps 693 mmHg 85%
19:00 +7°C° 0 mm 1 mps 694 mmHg 88%
20:00 +6°C° 0 mm 1 mps 694 mmHg 89%
21:00 +6°C° 0 mm 1 mps 694 mmHg 89%
22:00 +5°C° 0 mm 1 mps 694 mmHg 90%
23:00 +5°C° 0 mm 1 mps 694 mmHg 90%
Mostrar más

Necesitamos Su Consentimiento

Meteoprog y nuestros Proveedores de Servicios pueden almacenar y acceder a sus datos personales como cookies, identificadores de dispositivo u otras tecnologías similares de su dispositivo y procesar dichos datos para personalizar contenido y anuncios, además de ofrecer funciones de redes sociales y analizar el tráfico.

  • Almacenar y/o acceder a información en su dispositivo

    Se puede almacenar o acceder a cookies, identificadores de dispositivo u otra información de su dispositivo para los fines anteriormente indicados.

  • Anuncios y contenido personalizados, medición de anuncios y contenido, percepciones del público, y desarrollo de productos

    Los anuncios y el contenido pueden personalizarse en base a su perfil. Se pueden añadir más datos para personalizar mejor los anuncios y contenidos. Se puede medir el rendimiento de los anuncios y contenidos. Se puede obtener la percepción sobre el público que ha visto los anuncios y contenidos. Dichos datos pueden usarse para desarrollar o mejorar la experiencia del usuario, sistemas y software.

Al hacer clic en ‘Estoy De Acuerdo’ usted permitirá el uso de las cookies, identificadores de dispositivo, balizas web u otras tecnologías similares indicadas. Su configuración puede cambiarse desde el navegador de su dispositivo.

Para ciertos fines, los intereses legítimos pueden ser considerados por encima del consentimiento. Puede leer más sobre ello en nuestra Política de Privacidad y Cookies.